STARLINK-1339 (45533 NORAD) Tracking and Keplerian Element Data

This shows tracking and keplerian element data for the satellite.

Feedback or suggestion? Click here.




ElementValue
Catalog45533
NameSTARLINK-1339
Epoch Orbit176
Epoch Day196.91667824
Epoch Year2020
RAAN11.2548
Inclination53.0019
Eccentricity0.0001254
Argument of Perigee79.4642
Mean Anonmoly12.2848
Mean Motion15.05536138
Decay Rate0.00041535
L11 45533U 20025C 20196.91667824 .00041535 00000-0 28564-2 0 9995
L22 45533 53.0019 11.2548 0001254 79.4642 12.2848 15.05536138 1761

Live tracking and technical data element details for STARLINK-1339 (NORAD 45533). STARLINK-1339 can be tracked NOW for your location showing map with azimuth and elevation plus other details from your city location.

Track the satellite on the map from your city or location and see movement details for azimuth, elevation, latitude, longitude, range, height, and movement on the map or in text.







IsCatalogInMostPopularTable: catalog: 45533, numindb: 15
Update: records affected: 1



GetName: 45533 STARLINK-1339

Hit Count: updated at: Thu, 16 Jul 2020 03:32:07 GMT